sat.trackr.live / text

‹ back to catalog

STARLINK-32551

NORAD 62166 · 2024-225D

PAYLOAD ACTIVE UNKNOWN

§ Identity

Operator
Country
US
Launch date
2024-11-30
Launch site
AFWTR
Launch vehicle
Mass (kg)
RCS (m²)

Purposes: comms

External: N2YO · Heavens-Above · Gunter

§ Orbital elements

Epoch: 2026-05-24T23:24:38.994048Z

Period
96.11 min
Inclination
70.0029°
Eccentricity
0.0001979
Mean motion
14.98338876 rev/d
Perigee alt
570.7 km
Apogee alt
573.4 km
Semi-major
6,950.2 km
B*
2.4639e-4
RAAN
332.0440°
Arg perigee
259.0270°
Mean anomaly
101.0666°
Rev number
8,130

§ Raw data

STARLINK-325511 62166U 24225D   26144.97545132  .00002849  00000+0  24639-3 0  99982 62166  70.0029 332.0440 0001979 259.0270 101.0666 14.98338876 81307

JSON: /api/v1/satellites/62166 · /tle

For live sub-satellite position, see the globe view (requires WebGL).

§ Visibility from observer

Set your observer location to see the next 7 days of passes ≥ 10°. The values pass through the URL so the page stays shareable.

No JS? Fill the form by hand. The geolocation button needs JavaScript.